Location: Oberkirch
(48.5323°N, 8.0787°E)
Time: 16:55:15
(UTC+00:00)

Cosmos 2219 Rocket - Pass Details

Date: 08 November 2025
Orbit: 825 x 847 km, 71.0° (Epoch: 12 December)

Event Time Altitude Azimuth Distance (km) Brightness Sun altitude
Exits shadow 04:36:57 30° 291° (WNW) 1,484 2.9 -18.0°
Maximum altitude 04:37:59 32° 312° (NW) 1,426 3.0 -17.9°
Drops below altitude 10° 04:43:02 10° 14° (NNE) 2,478 4.7 -17.0°
Sets 04:45:46 0° 25° (NNE) 3,419 5.6 -16.6°
